Preview of NWS' New Version of Forecast
This preview is not operational and should not be used for support decisions.

Regional Weather Roundup (RWR)

Issued by National Weather Service (NWS)

                            
000
ASUS45 KCYS 180910
RWRWY 

WYOMING REGIONAL WEATHER ROUNDUP
NATIONAL WEATHER SERVICE CHEYENNE WY
300 AM MDT THU APR 18 2019

NOTE:  "FAIR" INDICATES FEW OR NO CLOUDS BELOW 12,000 FEET
WITH NO SIGNIFICANT WEATHER AND/OR OBSTRUCTIONS TO VISIBILITY.

WYZ001-181000-
...YELLOWSTONE NATIONAL PARK...
  
CITY           SKY/WX    TMP DP  RH WIND       PRES   REMARKS
LK YELLOWSTONE NOT AVBL                                               
W YELLOWSTONE  NOT AVBL                                               

$$
WYZ002>013-054>058-071-098>099-181000-
...NORTHERN WYOMING...
  
CITY           SKY/WX    TMP DP  RH WIND       PRES   REMARKS
JACKSON        CLOUDY    39  30  70 SW13      30.26R WCI  31          
CODY           CLEAR     29  22  75 CALM      30.19R                  
GREYBULL       PTCLDY    46  25  43 NW10      30.13R                  
WORLAND        PTCLDY    36  29  75 SW7       30.14R WCI  30          
SHERIDAN       CLOUDY    47  27  45 NW18      30.11R                  
BUFFALO        LGT RAIN  42  29  59 NW22G39   30.10R                  
GILLETTE       CLOUDY    39  34  82 W15       30.06R WCI  31          
HULETT         LGT RAIN  41  32  70 NW14G28   30.07R                  
NEWCASTLE      DRIZZLE   37  32  81 NW15G22   30.06R WCI  28          

$$
WYZ014>020-022>026-101>103-181000-
...CENTRAL WYOMING...
  
CITY           SKY/WX    TMP DP  RH WIND       PRES   REMARKS
BIG PINEY      CLEAR     33  26  75 N12       30.23S WCI  24          
PINEDALE       CLEAR     32  30  93 W9        30.23S WCI  24          
DUBOIS         MOCLDY    37  25  60 NW10G18   30.18R WCI  30          
LANDER         CLEAR     36  24  62 NE5       30.12R WCI  32          
RIVERTON       CLEAR     38  25  59 N10       30.14R WCI  31          
CASPER         PTCLDY    32  30  92 SW7       30.11S WCI  26          
DOUGLAS        MOCLDY    37  35  92 NW7       30.11R WCI  32          

$$
WYZ021-027>030-104>119-181000-
...SOUTHERN WYOMING...
  
CITY           SKY/WX    TMP DP  RH WIND       PRES   REMARKS
EVANSTON       CLEAR     33  27  78 SW8       30.31S WCI  26          
KEMMERER       CLEAR     32  30  93 W18       30.26R WCI  20          
FORT BRIDGER   FAIR      37  30  75 SW12      30.31S WCI  30          
ROCK SPRINGS   PTCLDY    36  29  75 W18G29    30.22S WCI  26          
DIXON          CLOUDY    39  30  70 S10       30.24S WCI  33          
RAWLINS        CLEAR     34  28  79 W17       30.16S WCI  23          
SARATOGA       FAIR      34  28  80 SW17      30.17S WCI  23          
LARAMIE        CLEAR     30  25  81 W13       30.11S WCI  20          
CHEYENNE       MOCLDY    35  33  92 N3        30.09S                  
TORRINGTON     PTCLDY    39  35  86 NW8       30.05S WCI  33          
PINE BLUFFS    FAIR      34  34 100 NW10      30.08F WCI  26          

$$